Time,TemperatureF,DewpointF,PressureIn,WindDirection,WindDirectionDegrees,WindSpeedMPH,WindSpeedGustMPH,Humidity,HourlyPrecipIn,Conditions,Clouds,dailyrainin,SoftwareType,DateUTC
2013-01-04 00:00:00,31.6,25.2,30.32,SSW,202,3.0,12.0,77,0.00,,OVC,0.00,VWS V14.01,2013-01-04 05:00:00,
2013-01-04 01:00:00,32.1,23.8,30.32,WNW,292,4.0,19.0,71,0.00,,OVC,0.00,VWS V14.01,2013-01-04 06:00:00,
2013-01-04 02:00:00,32.2,22.1,30.32,WNW,292,6.0,19.0,66,0.00,,OVC,0.00,VWS V14.01,2013-01-04 07:00:00,
2013-01-04 03:00:00,31.2,22.9,30.33,NNE,22,5.0,13.0,71,0.00,,OVC,0.00,VWS V14.01,2013-01-04 08:00:00,
2013-01-04 04:00:00,30.2,22.9,30.32,North,0,6.0,16.0,74,0.00,,OVC,0.00,VWS V14.01,2013-01-04 09:00:00,
2013-01-04 05:00:00,29.5,22.6,30.31,North,0,6.0,16.0,75,0.00,,OVC,0.00,VWS V14.01,2013-01-04 10:00:00,
2013-01-04 06:00:00,29.1,22.8,30.33,North,0,6.0,18.0,77,0.00,,OVC,0.00,VWS V14.01,2013-01-04 11:00:00,
2013-01-04 07:00:00,29.1,23.4,30.34,NNE,22,5.0,13.0,79,0.00,,OVC,0.00,VWS V14.01,2013-01-04 12:00:00,
2013-01-04 08:00:00,28.2,23.1,30.35,NE,45,2.0,9.0,81,0.00,,OVC,0.00,VWS V14.01,2013-01-04 13:00:00,
2013-01-04 09:00:00,29.5,23.2,30.38,NNE,22,2.0,11.0,77,0.00,,OVC,0.00,VWS V14.01,2013-01-04 14:00:00,
2013-01-04 10:00:00,31.6,23.3,30.38,NNE,22,3.0,11.0,71,0.00,,OVC,0.00,VWS V14.01,2013-01-04 15:00:00,
2013-01-04 11:00:00,35.0,22.9,30.39,NNE,22,2.0,9.0,61,0.00,,OVC,0.00,VWS V14.01,2013-01-04 16:00:00,
2013-01-04 12:00:00,38.3,23.1,30.37,WNW,292,2.0,9.0,54,0.00,,OVC,0.00,VWS V14.01,2013-01-04 17:00:00,
2013-01-04 13:00:00,40.5,26.5,30.33,NNE,22,1.0,7.0,57,0.00,,OVC,0.00,VWS V14.01,2013-01-04 18:00:00,
2013-01-04 14:00:00,41.4,26.0,30.31,NNE,22,2.0,8.0,54,0.00,,OVC,0.00,VWS V14.01,2013-01-04 19:00:00,
2013-01-04 15:00:00,43.1,25.3,30.30,NNE,22,2.0,11.0,49,0.00,,OVC,0.00,VWS V14.01,2013-01-04 20:00:00,
2013-01-04 16:00:00,41.6,23.9,30.32,WNW,292,2.0,9.0,49,0.00,,OVC,0.00,VWS V14.01,2013-01-04 21:00:00,
2013-01-04 17:00:00,38.5,21.0,30.33,NE,45,3.0,10.0,49,0.00,,OVC,0.00,VWS V14.01,2013-01-04 22:00:00,
2013-01-04 18:00:00,35.7,21.6,30.35,North,0,4.0,11.0,56,0.00,,OVC,0.00,VWS V14.01,2013-01-04 23:00:00,
2013-01-04 19:00:00,34.2,21.0,30.37,North,0,5.0,15.0,58,0.00,,OVC,0.00,VWS V14.01,2013-01-05 00:00:00,
2013-01-04 20:00:00,33.2,20.8,30.39,North,0,5.0,18.0,60,0.00,,OVC,0.00,VWS V14.01,2013-01-05 01:00:00,
2013-01-04 21:00:00,31.3,22.3,30.40,SSE,158,3.0,16.0,69,0.00,,OVC,0.00,VWS V14.01,2013-01-05 02:00:00,
2013-01-04 22:00:00,30.3,22.4,30.38,SW,225,3.0,14.0,72,0.00,,OVC,0.00,VWS V14.01,2013-01-05 03:00:00,
2013-01-04 23:00:00,30.0,22.1,30.38,WSW,248,4.0,17.0,72,0.00,,OVC,0.00,VWS V14.01,2013-01-05 04:00:00,